Regional Weather Roundup
Issued by NWS Bismarck, ND

Home | Current Version | Previous Version | Text Only | Print | Product List | Glossary On
Versions: 1 2 3 4 5 6 7 8 9 10 11 12 13 14 15 16 17 18 19 20 21 22 23 24 25 26 27 28 29 30 31 32 33 34 35 36 37 38 39 40 41 42 43 44 45 46 47 48 49 50
000
ASUS43 KBIS 292310
RWRBIS

NWR BROADCAST TEXT
NATIONAL WEATHER SERVICE BISMARCK ND
500 PM CST THU JAN 29 2015

NOTE: "FAIR" INDICATES FEW OR NO CLOUDS BELOW 12,000 FEET WITH NO
SIGNIFICANT WEATHER AND/OR OBSTRUCTIONS TO VISIBILITY.


CITY           SKY/WX    TMP DP  RH WIND       PRES   REMARKS
WILLISTON      CLEAR     32  21  64 CALM      30.39F
MINOT          CLOUDY    17  11  77 NE8       30.45F WCI   7
MINOT AFB      CLOUDY    17  15  89 E8        30.45F WCI   7
BISMARCK       PTCLDY    28  19  69 N7        30.46S
DICKINSON      CLEAR     37  18  46 CALM      30.35S
GARRISON         N/A     25  18  74 NE3       30.43F
HETTINGER ARPT CLEAR     39  14  36 W6        30.38F
JAMESTOWN      FLURRIES  19  12  74 N10       30.48R WCI   7
BEACH          FAIR      37  25  60 SW6       30.36S
CARRINGTON     CLOUDY    16  14  93 MISG      30.50R
CROSBY         FAIR      25  21  86 E5        30.40F WCI  19
HARVEY         CLOUDY    16  10  79 N7        30.48S WCI   6
HAZEN          FAIR      28  18  64 E3        30.44F
LINTON         FAIR      28  23  80 NE8       30.45S
MANDAN         FAIR      27  19  74 N5        30.45S
OAKES            N/A     19  16  86 N12       30.50R WCI   7
RUGBY          FAIR       9   5  85 NW8       30.49S WCI  -4
TIOGA          FAIR      25  23  93 SW3       30.42S
WATFORD CITY   FAIR      32  23  69 CALM      30.37S
$$

CITY           SKY/WX    TMP DP  RH WIND       PRES   REMARKS
GRAND FORKS    PTCLDY    10   3  73 N14       30.56R WCI  -6
GRAND FORKS AF CLEAR     11   2  67 NE9       30.56R WCI  -2
DEVILS LAKE    CLOUDY    12   3  67 N5        30.49S WCI   4
FARGO          MOCLDY    16   6  65 N14       30.54R WCI   2
CANDO          FLURRIES  10   7  85 N7        30.50S WCI   0
CAVALIER       FAIR       9   1  72 N10       30.57S WCI  -6
GWINNER        CLOUDY    21  16  79 N15       30.51S WCI   8
ROLLA          CLOUDY     9   5  85 MISG      30.47S
WALHALLA         N/A      9   0  66 N9        30.56S WCI  -5
$$

CITY           SKY/WX    TMP DP  RH WIND       PRES   REMARKS
ABERDEEN       CLOUDY    25  17  72 N15       30.50F WCI  13
MOBRIDGE       CLEAR     35  21  56 CALM      30.43R
BUFFALO          N/A     43   8  23 S5        30.31S
RAPID CITY     CLEAR     44  13  28 E5        30.39F
GLASGOW        CLEAR     35  32  88 MISG      30.28F
SIDNEY         CLEAR     36  23  60 CALM      30.39F
WOLF POINT     CLEAR     39  27  62 SE7       30.33F
GLENDIVE       CLEAR     39  25  56 S8        30.35F
MILES CITY     CLEAR     44  24  45 SE9       30.31F
BAKER          CLEAR     42  14  32 S6        30.35F
$$

CITY           SKY/WX    TMP DP  RH WIND       PRES   REMARKS
BILLINGS       MOSUNNY   50  25  37 SW16G23   30.26F
GREAT FALLS    PTSUNNY   49  18  29 SW14      30.20F
REGINA         CLOUDY    14  10  85 SE12      30.36F WCI   0
ESTEVAN        MOCLDY   N/A N/A N/A E7          N/A
$$



USA.gov is the U.S. government's official web portal to all federal, state and local government web resources and services.